THORAD AGENA D DEB, 42546

Orbit data source: Space-Track

THORAD AGENA D DEB, 42546 is space debris in SSO originally from a launch on Wed, 08 Apr 1970 UTC launched from the Air Force Western Test Range (AFWTR). Debris objects in space refer to the collection of defunct objects orbiting the Earth. Examples of debris include non-operational satellites, rocket bodies, and fragments generated from explosions, collisions, or faulty payload assembly.

Loading next visibility...
Identifier
42546, 1970-025TC
Orbit
SSO
Country
Flag of USUS
Related business
Manufacturer
Unknown
Mission
Spacecraft
Bus & Motor
Unknown
Mass
Unknown
Launch date (UTC)
1970-04-08 (56 years ago)
Launch vehicle
Unknown
Launch site
Air Force Western Test Range (AFWTR)
Object type
Payload
Rocket body
Debris
Shape & HBR
Unknown shape, 0.1 m
Radar Cross Section
Small (<0.1 m²)

Expand to show TLE details & history
Last TLE update: 2 days ago

TLE from 2 days ago
0 THORAD AGENA D DEB
1 42546U 70025TC  25289.27748580  .00000990  00000-0  12836-2 0  9992
2 42546 100.1266 131.2959 0052642 190.9326 169.0674 13.64403654591338
Epoch: 2025-10-16T06:39Z
TLE epoch observation values (Epoch: 2025-10-16T06:39:34.773Z)
Latitude
-0.00006°
Longitude
6.36151°
Altitude
1,060.773 km
Speed
7.303 km/s
True Right ascension
08h 45m 11s
True Declination
0° 00' 00"
Sunlit
Object was in daylight at epoch
Visualization orbit readout
Latitude
Unknown
Longitude
Unknown
Altitude
Unknown
Speed
Unknown
Apparent Right ascension
Unknown
Apparent Declination
Unknown
Sunlit
N/A
Visualization observer readout
Local Sidereal Time
08:23:32
Azimuth
Unknown
Elevation
Unknown
Doppler factor
Unknown
Orbital elements
Apogee altitude
1,055.965 km
Perigee altitude
978.106 km
Semi-major axis
7,395.173 km
Eccentricity
0.00526
Inclination
100.1266°
RAAN
131.2959°
Arg. of periapsis
190.9326°
True anomaly
169.18107°
Mean anomaly
169.0674°
Eccentric anomaly
169.12431°
Mean motion
3.41288 °/min
Orbital period
105.48 mins
BSTAR
0.0012836

Documentation

Showing up to 5 results
|